Content
SEND FEEDBACK

Daily
Averages
Monthly
Summary
United States of America

EARTH CITY, MISSOURI


Home > North America > United States > Missouri
Elevation: 476 feet     Latitude: 38 46N     Longitude: 090 30W

WEATHER
 
SELECT A DAY
Number of Records: 207,509;   Date Range: 1/1/95 - 11/25/14
 
SHARE

PRINT THIS DATA

[ ← Previous Day ]
WEATHER ALMANAC - FEBRUARY 5, 2013
[ Next Day → ]
[ °C ]   °F
Weather ElementAverageHighLow
Temperature40.1 °F55.9 °F (2:51 pm)30 °F (2:51 am)
Dewpoint28 °F32 °F (1:51 pm)24.1 °F (1:51 am)
Humidity64.3 %80 % (5:27 am)39 % (2:51 pm)
Barometer30.00 in30.17 in (11:51 pm)29.92 in (12:51 pm)
Wind Speed7.2 mph16.1 mph (2:51 pm)
Wind Gust24.2 mph (2:51 pm)
Weather ElementAverage
Visibility8.4 mi
Wind DirectionSSW (200.4 °)

Weather ElementTotal
Precipitation---
Heating Degree Days22.1 (Base 65)
Averaged from 24 records on February 5, 2013
WEATHER CONDITIONS BREAKOUT
WIND DIRECTION BREAKOUT
WEATHER BY HOUR - FEBRUARY 5, 2013
[ °C ]   °F
Local TimeTemperatureDewpointHumidityBarometerVisibilityWind DirectionWind SpeedGust SpeedPrecipitationEventsConditions
1:51 AM30.9 °F24.1 °F76 %29.98 in7.0 miCalmOvercast
2:51 AM30.0 °F24.1 °F79 %29.97 in7.0 miNW (310°)4.6 mphMostly Cloudy
3:51 AM30.0 °F24.1 °F79 %29.97 in7.0 miCalmOvercast
4:51 AM30.0 °F24.1 °F79 %29.98 in7.0 miCalmOvercast
5:27 AM30.2 °F24.8 °F80 %29.96 in7.0 miCalmOvercast
5:51 AM30.0 °F24.1 °F79 %29.98 in7.0 miSSW (210°)3.5 mphOvercast
6:51 AM30.9 °F25.0 °F79 %29.97 in6.0 miSouth (180°)4.6 mphHaze
7:51 AM30.9 °F25.0 °F79 %29.98 in6.0 miSouth (180°)5.8 mphHaze
8:51 AM34.0 °F26.1 °F73 %29.99 in5.0 miSouth (190°)6.9 mphHaze
9:51 AM37.0 °F27.0 °F67 %29.99 in6.0 miSSW (200°)8.1 mphHaze
10:51 AM43.0 °F28.9 °F58 %29.96 in8.0 miSW (220°)11.5 mphMostly Cloudy
11:51 AM46.9 °F28.9 °F50 %29.95 in9.0 miWSW (250°)12.7 mphMostly Cloudy
12:51 PM51.1 °F30.9 °F46 %29.92 in10.0 miWSW (250°)12.7 mphMostly Cloudy
1:51 PM55.0 °F32.0 °F42 %29.92 in10.0 miWest (270°)13.8 mphPartly Cloudy
2:51 PM55.9 °F30.9 °F39 %29.93 in10.0 miWest (280°)16.1 mph24.2 mphPartly Cloudy
3:51 PM55.9 °F32.0 °F40 %29.95 in10.0 miWNW (300°)16.1 mph23.0 mphPartly Cloudy
4:51 PM52.0 °F30.9 °F45 %29.98 in10.0 miNW (310°)13.8 mph21.9 mphClear
5:51 PM48.0 °F30.9 °F52 %30.01 in10.0 miWNW (300°)8.1 mphClear
6:51 PM45.0 °F30.9 °F58 %30.04 in10.0 miNW (310°)6.9 mphClear
7:51 PM42.1 °F30.9 °F65 %30.07 in10.0 miNW (320°)5.8 mphClear
8:51 PM42.1 °F30.0 °F62 %30.11 in10.0 miNorth (360°)9.2 mphClear
9:51 PM39.9 °F30.0 °F68 %30.14 in10.0 miNNE (20°)8.1 mphClear
10:51 PM36.0 °F28.0 °F73 %30.15 in10.0 miNorth (350°)4.6 mphClear
11:51 PM35.1 °F28.0 °F76 %30.17 in10.0 miCalmClear
Hourly data recorded from KSTL, located miles away from Earth City, Missouri







STORIES FROM OUR PARTNERS